Погода в Певеке

Россия / Чукотский автономный округ     69°42′06″N   170°17′59″E
темп.,
°C
ветер,
м/с
пор.,
м/с
влажн.,
%
обл.,
%
осадки,
мм/ч
давл.,
гПа
погр.,
м
26 февраля, пт
пт2600:00−31ю22100100 0.1 102919
03:00−32ююв3399100 0.0 102922
06:00−32ююв3398100 0.0 103035
09:00−31ююв449899 0.0 1031102
12:00−30ююв349798 0.1 1032124
15:00−30ю359792 0.0 103296
18:00−32ююв349892 0.0 103240
21:00−32ю349888 0.0 103334
27 февраля, сб
сб2700:00−33ю349782 0.0 103431
03:00−33ю339720 0.0 103321
06:00−33ю339722 0.0 103328
09:00−33ю229774 0.0 103419
12:00−32ю229567 0.0 103345
15:00−32ю22952 0.0 103320
18:00−33ю22971 0.0 103219
21:00−33ю22980 0.0 103319
28 февраля, вс
вс2800:00−34ю22980 0.0 103219
03:00−34ю22970 0.0 103219
06:00−34ю23971 0.0 103223
09:00−34ю339641 0.0 103228
12:00−33ю339550 0.0 103296
15:00−32ю239518 0.0 103257
18:00−34ю23969 0.0 103219
21:00−34ю22970 0.0 103219
1 марта, пн
пн100:00−34ююв12960 0.0 103119
03:00−34ююв11970 0.0 103019
06:00−34сз11980 0.0 102819
09:00−33зсз11980 0.0 102719
12:00−31юз12950 0.0 102522
15:00−31сз11950 0.0 102319
18:00−32зсз11980 0.0 102219
21:00−33юз111000 0.0 102119
2 марта, вт
вт200:00−33юз111000 0.0 102019
03:00−33ю22996 0.0 102019
06:00−33ю11994 0.0 102019
09:00−33ююз12987 0.0 102119
12:00−32ю12954 0.0 102221
15:00−32ююз00950 0.0 102319
18:00−32зсз019827 0.0 102419
21:00−32с1110099 0.0 102619